Flag for Finland Weather past 2 weeks in Oulu, Finland

Now
57 °F

Partly sunny.


Feels Like: 55 °F
Forecast: 45 / 58 °F
Wind: 8 mph from Northeast

Location: Oulu Airport

Current Time: Aug 28, 2014 at 6:18:42 PM

Latest Report: Aug 28, 2014 at 5:50 PM


Visibility: N/A

Pressure: 29.86 "Hg

Humidity: 82%

Dew point: 52 °F

Location of OuluLocation

Historic Weather in Oulu — Graph

°F

Oulu temperature yesterday

Maximum temperature yesterday: 63 °F (at 4:20 PM)
Minimum temperature yesterday: 55 °F (at 1:50 AM)
Average temperature yesterday: 57 °F

Past Weeks' High & Low Weather Summary

 TemperatureHumidityPressure
High70 °F (Aug 14, 12:20 PM)100% (Aug 15, 3:50 AM)29.86 "Hg (Aug 15, 3:50 AM)
Low45 °F (Aug 18, 5:20 AM)43% (Aug 18, 1:50 PM)29.39 "Hg (Aug 19, 3:50 PM)
Average57 °F82%29.59 "Hg
* Reported Aug 13 5:20 PM — Aug 28 5:20 PM, Oulu, Weather by CustomWeather, © 2014

Note: Actual official high and low records may vary slightly from our data, if they occured in-between our weather recording intervals... More about our weather records

Advertising

Oulu weather history for previous 24 hours

 ConditionsComfort  
Time TempWeatherWind HumidityBarometerVisibility
5:20 PM
Aug 28
59 °FPassing clouds.8 mph77%29.83 "HgN/A
4:50 PM57 °FMostly cloudy.7 mph77%29.83 "HgN/A
4:20 PM55 °FSprinkles. Overcast.9 mph88%29.83 "HgN/A
3:50 PM59 °FBroken clouds.12 mph72%29.80 "HgN/A
3:20 PM61 °FPassing clouds.7 mph77%29.80 "HgN/A
2:50 PM59 °FSprinkles. Partly sunny.8 mph77%29.80 "HgN/A
2:20 PM63 °FScattered clouds.9 mph68%29.80 "HgN/A
1:50 PM61 °FPartly sunny.10 mph68%29.80 "HgN/A
1:20 PM61 °FMostly cloudy.9 mph72%29.77 "HgN/A
12:50 PM61 °FBroken clouds.8 mph72%29.77 "HgN/A
12:20 PM61 °FMore clouds than sun.8 mph77%29.77 "HgN/A
11:50 AM59 °FPartly sunny.7 mph82%29.77 "HgN/A
11:20 AM59 °FPartly sunny.5 mph82%29.77 "HgN/A
10:50 AM59 °FLight rain. Broken clouds.6 mph82%29.77 "HgN/A
10:20 AM57 °FPartly sunny.5 mph88%29.77 "HgN/A
9:50 AM57 °FPartly sunny.6 mph88%29.74 "HgN/A
9:20 AM57 °FPartly sunny.5 mph88%29.74 "HgN/A
8:50 AM55 °FPartly sunny.6 mph94%29.74 "HgN/A
8:20 AM55 °FPartly sunny.6 mph94%29.74 "HgN/A
7:50 AM55 °FMostly cloudy.5 mph94%29.74 "HgN/A
7:20 AM55 °FMostly cloudy.5 mph94%29.71 "HgN/A
6:50 AM55 °FSprinkles. Cloudy.5 mph94%29.71 "HgN/A
6:20 AM55 °FMostly cloudy.5 mph94%29.71 "HgN/A
5:50 AM55 °FMostly cloudy.5 mph94%29.71 "HgN/A
5:20 AM55 °FMostly cloudy.6 mph94%29.68 "HgN/A
4:50 AM55 °FMostly cloudy.6 mph94%29.68 "HgN/A
4:20 AM55 °FMostly cloudy.5 mph94%29.68 "HgN/A
3:50 AM55 °FMostly cloudy.6 mph94%29.68 "HgN/A
3:20 AM55 °FPartly cloudy.6 mph94%29.65 "HgN/A
2:50 AM55 °FMostly cloudy.6 mph94%29.65 "HgN/A
2:20 AM55 °FPartly cloudy.7 mph94%29.65 "HgN/A
1:50 AM55 °FMostly cloudy.5 mph100%29.65 "HgN/A
1:20 AM55 °FOvercast.7 mph94%29.62 "HgN/A
12:50 AM57 °FMostly cloudy.7 mph94%29.62 "HgN/A
12:20 AM57 °FOvercast.7 mph94%29.62 "HgN/A
11:50 PM
Aug 27
57 °FMostly cloudy.7 mph94%29.62 "HgN/A
11:20 PM57 °FMostly cloudy.7 mph94%29.59 "HgN/A
10:50 PM57 °FPartly cloudy.8 mph94%29.59 "HgN/A
10:20 PM57 °FMostly cloudy.8 mph94%29.59 "HgN/A
9:50 PM57 °FBroken clouds.7 mph94%29.59 "HgN/A
8:50 PM57 °FPartly sunny.8 mph94%29.59 "HgN/A
8:20 PM59 °FMore clouds than sun.7 mph94%29.56 "HgN/A
7:20 PM59 °FLight rain. Broken clouds.8 mph94%29.56 "HgN/A
6:50 PM59 °FBroken clouds.10 mph88%29.56 "HgN/A
Weather by CustomWeather, © 2014

See weather overviewHow to use our weather pages